DW3219 Weather Reports


Display with metric or nautical units.
time (UTC)temp
F
wind
direction
speed
MPH
gust
MPH
rain 1hr
in
rain 24hr
in
rain mn
in
humidity
%
barometer
mb
20260903041505 72 267 0.0 0.0 0.00 0.00 0.00 32 1001.3
20260903040042 75 270 0.0 0.0 0.00 0.00 0.00 28 1001.2
20260903034542 76 274 0.0 0.0 0.00 0.00 0.00 26 1001.0
20260903033031 77 259 0.0 0.0 0.00 0.00 0.00 24 1000.8
20260903031523 76 254 0.0 0.0 0.00 0.00 0.00 25 1000.8
20260903030008 75 234 0.0 3.0 0.00 0.00 0.00 26 1000.5
20260903024505 75 241 0.0 0.0 0.00 0.00 0.00 31 1000.2
20260903023001 75 242 0.0 0.0 0.00 0.00 0.00 33 1000.1
20260903021557 77 242 0.0 0.0 0.00 0.00 0.00 31 999.7
20260903020056 79 242 0.0 0.0 0.00 0.00 0.00 30 999.5
20260903014606 80 242 0.0 0.0 0.00 0.00 0.00 28 999.4
20260903013046 81 244 0.0 0.0 0.00 0.00 0.00 26 999.6
20260903011544 82 252 0.0 0.0 0.00 0.00 0.00 26 999.6
20260903010042 83 252 0.0 5.0 0.00 0.00 0.00 25 999.6
20260903004535 84 254 0.0 15.0 0.00 0.00 0.00 22 999.7
20260903003028 84 239 3.0 13.0 0.00 0.00 0.00 21 999.6
20260903001525 84 247 4.0 13.0 0.00 0.00 0.00 22 999.5
20260903000023 84 236 0.0 7.0 0.00 0.00 0.00 23 999.4
20260902234521 86 257 0.0 7.0 0.00 0.00 0.00 19 999.2
20260902233021 87 232 0.0 14.0 0.00 0.00 0.00 18 999.1
20260902231520 87 236 5.0 17.0 0.00 0.00 0.00 18 999.0
20260902230020 88 200 1.0 12.0 0.00 0.00 0.00 18 998.9
20260902224506 90 260 4.0 12.0 0.00 0.00 0.00 15 998.8
20260902223005 89 189 2.0 11.0 0.00 0.00 0.00 17 998.8
20260902221503 89 259 4.0 15.0 0.00 0.00 0.00 17 998.8
20260902220101 89 217 0.0 4.0 0.00 0.00 0.00 18 998.9
20260902214557 86 183 0.0 1.0 0.00 0.00 0.00 21 998.9
20260902213101 86 34 0.0 1.0 0.00 0.00 0.00 25 998.9
20260902211557 86 263 0.0 0.0 0.00 0.00 0.00 23 999.3
20260902210057 85 105 0.0 0.0 0.00 0.00 0.00 24 999.6
20260902204536 86 70 0.0 1.0 0.00 0.00 0.00 25 999.7
20260902203034 86 291 0.0 1.0 0.00 0.00 0.00 23 1000.1
20260902201537 86 274 0.0 2.0 0.00 0.00 0.00 22 1000.3
20260902200034 85 265 0.0 4.0 0.00 0.00 0.00 22 1000.5
20260902194536 86 194 0.0 8.0 0.00 0.00 0.00 22 1000.7
20260902193030 86 211 0.0 8.0 0.00 0.00 0.00 23 1000.9
20260902191528 85 204 0.0 14.0 0.00 0.00 0.00 24 1001.3
20260902190025 84 195 0.0 11.0 0.00 0.00 0.00 24 1001.6
20260902184502 85 180 1.0 8.0 0.00 0.00 0.00 26 1002.0
20260902183002 84 191 0.0 7.0 0.00 0.00 0.00 26 1002.4
20260902181547 83 208 0.0 9.0 0.00 0.00 0.00 26 1002.6
20260902180046 82 132 0.0 4.0 0.00 0.00 0.00 29 1002.8
20260902174542 81 135 0.0 5.0 0.00 0.00 0.00 29 1003.2
20260902173040 81 165 0.0 6.0 0.00 0.00 0.00 30 1003.5
20260902171541 80 142 0.0 6.0 0.00 0.00 0.00 30 1003.5
20260902170041 79 140 0.0 8.0 0.00 0.00 0.00 33 1003.7
20260902164540 78 142 1.0 9.0 0.00 0.00 0.00 33 1003.8
20260902163045 77 137 0.0 8.0 0.00 0.00 0.00 35 1003.9
20260902161526 76 125 0.0 11.0 0.00 0.00 0.00 37 1004.1
20260902160023 75 155 1.0 8.0 0.00 0.00 0.00 36 1004.1
20260902154523 74 177 0.0 6.0 0.00 0.00 0.00 38 1004.4
20260902153027 72 160 1.0 9.0 0.00 0.00 0.00 40 1004.7
20260902151522 70 246 0.0 0.0 0.00 0.00 0.00 45 1004.8
20260902150021 70 189 0.0 0.0 0.00 0.00 0.00 45 1004.9
20260902144532 67 126 0.0 0.0 0.00 0.00 0.00 51 1005.0
20260902143021 65 126 0.0 0.0 0.00 0.00 0.00 53 1005.0
20260902141511 62 126 0.0 0.0 0.00 0.00 0.00 55 1005.2
20260902140009 61 126 0.0 3.0 0.00 0.00 0.00 57 1005.4
20260902134511 59 113 0.0 0.0 0.00 0.00 0.00 59 1005.4
20260902133008 57 308 0.0 0.0 0.00 0.00 0.00 63 1005.5
20260902131509 56 307 0.0 0.0 0.00 0.00 0.00 65 1005.7
20260902130006 55 316 0.0 1.0 0.00 0.00 0.00 69 1005.7
20260902124507 56 248 0.0 0.0 0.00 0.00 0.00 68 1005.2
20260902123006 56 230 0.0 0.0 0.00 0.00 0.00 69 1005.1
20260902121548 56 232 0.0 0.0 0.00 0.00 0.00 69 1005.4
20260902120048 56 236 0.0 0.0 0.00 0.00 0.00 67 1005.4
20260902114535 57 236 0.0 0.0 0.00 0.00 0.00 65 1005.3
20260902113034 56 232 0.0 0.0 0.00 0.00 0.00 65 1005.2
20260902111534 56 229 0.0 0.0 0.00 0.00 0.00 70 1005.0
20260902110033 56 229 0.0 0.0 0.00 0.00 0.00 71 1004.9
20260902104533 55 231 0.0 0.0 0.00 0.00 0.00 73 1005.0
20260902103038 56 229 0.0 0.0 0.00 0.00 0.00 74 1004.7
20260902101529 56 229 0.0 0.0 0.00 0.00 0.00 73 1004.4
20260902100028 56 229 0.0 0.0 0.00 0.00 0.00 71 1004.6
20260902094513 57 229 0.0 0.0 0.00 0.00 0.00 70 1004.7
20260902093014 58 229 0.0 0.0 0.00 0.00 0.00 69 1004.8
20260902091523 58 221 0.0 0.0 0.00 0.00 0.00 69 1004.9
20260902090008 59 221 0.0 0.0 0.00 0.00 0.00 67 1005.0
20260902084509 59 131 0.0 0.0 0.00 0.00 0.00 65 1005.2
20260902083006 59 121 0.0 0.0 0.00 0.00 0.00 66 1005.2
20260902081505 59 121 0.0 0.0 0.00 0.00 0.00 67 1005.2
20260902080004 60 121 0.0 0.0 0.00 0.00 0.00 68 1005.0
20260902074545 60 122 0.0 0.0 0.00 0.00 0.00 68 1005.1
20260902073043 61 217 0.0 0.0 0.00 0.00 0.00 66 1005.3
20260902071550 61 222 0.0 0.0 0.00 0.00 0.00 66 1005.4
20260902070029 62 261 0.0 0.0 0.00 0.00 0.00 64 1005.4
20260902064529 61 277 1.0 7.0 0.00 0.00 0.00 65 1005.6
20260902063034 61 266 0.0 0.0 0.00 0.00 0.00 63 1005.5
20260902061540 61 271 0.0 0.0 0.00 0.00 0.00 66 1005.4
20260902060032 61 271 0.0 0.0 0.00 0.00 0.00 66 1005.4
20260902054535 61 271 0.0 2.0 0.00 0.00 0.00 65 1005.4
20260902053023 62 213 0.0 0.0 0.00 0.00 0.00 61 1005.2
20260902051505 64 252 0.0 0.0 0.00 0.00 0.00 58 1005.0
20260902050003 65 257 0.0 0.0 0.00 0.00 0.00 54 1005.2
20260902044501 64 257 0.0 1.0 0.00 0.00 0.00 54 1005.2
20260902043100 65 259 0.0 0.0 0.00 0.00 0.00 53 1005.1